sat.trackr.live / text

‹ back to catalog

STARLINK-5611

NORAD 55761 · 2023-028W

PAYLOAD ACTIVE UNKNOWN

§ Identity

Operator
Country
US
Launch date
2023-03-03
Launch site
AFWTR
Launch vehicle
Mass (kg)
RCS (m²)

Purposes: comms

External: N2YO · Heavens-Above · Gunter

§ Orbital elements

Epoch: 2026-05-25T02:19:54.870240Z

Period
96.11 min
Inclination
69.9998°
Eccentricity
0.0002913
Mean motion
14.98334939 rev/d
Perigee alt
570.0 km
Apogee alt
574.1 km
Semi-major
6,950.2 km
B*
1.6496e-5
RAAN
31.9944°
Arg perigee
268.7018°
Mean anomaly
91.3807°
Rev number
17,797

§ Raw data

STARLINK-56111 55761U 23028W   26145.09716285  .00000104  00000+0  16496-4 0  99992 55761  69.9998  31.9944 0002913 268.7018  91.3807 14.98334939177975

JSON: /api/v1/satellites/55761 · /tle

For live sub-satellite position, see the globe view (requires WebGL).

§ Visibility from observer

Set your observer location to see the next 7 days of passes ≥ 10°. The values pass through the URL so the page stays shareable.

No JS? Fill the form by hand. The geolocation button needs JavaScript.